Simultaneous Nadir Overpasses (SNOs) Predictions

Prediction of SNOs between GOES-17 and METOP-C Satellite Orbit:

Table of predicted SNOs for the next 14.0 days since TLE Epoch: 3/28/2025
Index Date Time (GOES-17) GOES-17 Lat,Lon METOP-C Lat,Lon Distance(km) Time Diff (sec)
1 03/31/2025 04:28:34 -0.03,-104.39 0.03,-104.12 30.97 80
2 04/01/2025 16:47:25 0.03,-104.43 0.95,-108.68 484.19 80
3 04/02/2025 16:24:05 0.02,-104.43 -0.14,-103.68 84.96 80
4 04/04/2025 04:43:04 -0.02,-104.39 -0.87,-108.28 442.95 80
5 04/05/2025 04:25:03 -0.02,-104.39 0.23,-103.28 126.41 80
6 04/06/2025 16:43:54 0.02,-104.43 0.80,-107.84 388.50 80
7 04/07/2025 16:20:34 0.02,-104.44 -0.36,-102.85 181.16 80
8 04/09/2025 04:39:33 -0.01,-104.40 -0.67,-107.44 345.89 80
9 04/10/2025 04:21:32 -0.01,-104.41 0.44,-102.44 224.22 80
10 04/11/2025 16:40:22 0.01,-104.46 0.57,-107.00 289.72 80
